Location: Ferchesar
(52.6477°N, 12.4298°E)
Time: 09:21:09
(UTC+01:00)

Vanguard 1 - Pass Details

Date: 16 December 2021
Orbit: 652 x 3830 km, 34.2° (Epoch: 16 January)

Event Time Altitude Azimuth Distance (km) Brightness Sun altitude
Rises 20:37:01 0° 218° (SW) 5,540 14.1 -41.0°
Reaches altitude 10° 20:40:37 10° 209° (SSW) 4,938 13.7 -41.5°
Enters shadow 20:48:33 30° 178° (S) 4,276 13.0 -42.6°
